“In life, you're either a passenger or a pilot. It’s your choice.”

WELCOME TO YOUR AVIATION DREAM!

What's new Up There Icon

WHAT’S NEW HERE?

4000+ aviation terms, acronyms and definitions!
Make your study a little easier with the aviation glossaries that gather over 4000 terms and acronyms extracted from weather, communications, technical and more general topics…
Partnership Icon

PARTNESHIP ANNOUNCEMENT

I am proud to announce a partnership with nizul Logo, study partner of every pilot who wants to consolidate their ground school knowledge and master their written examination.

Try Me Icon

ALL YOURS FOR 30 MINUTES!

Not sure you’d get along with a freelance instructor? How about giving it a try with a 30 minute flight?
My treat! All free.

Resources Tool Box

STUDENT RESOURCES

As a registered student training with me, you get access to a whole lot of files, tools, documents, aviation glossaries, videos, quizzes, sample tests, etc… 

Control Tower Icon

QUESTIONS? CHECK F.A.Q.

In aviation, the only stupid question is the one you didn’t ask. And there is a big chance yours has already been answered in the FAQ. Check it out!

Brain Icon

ARE YOU WIRED FOR FLYING?

Flying an aircraft is usually not the most difficult part of the “problem” and it takes a certain mindset to deal with the other aspects of a flight. Find out wether…

THEY DID IT!

Meet those who refused to be the passengers of their lives, and learn about their experience.

QUICK FACTS

Aviation is a world of serious numbers.
Here are my own, and they count as much as the other ones.

0
YEARS OF
WISDOM
0
YEARS OF
SKY FUN
0
AMAZING
STUDENTS
0
HOURS OF
PURE EXCITEMENT

Grow some wings,
Come fly with me!

Vancouver Island Weather

METARs and TAFs.
VICTORIA INTL (CYYJ)
METAR:

CYYJ 260500Z 29017G26KT 15SM FEW140 BKN180 OVC220 16/07 A2980 RMK AC1AC6CC1 SLP093 DENSITY ALT 400FT

TAF:

TAF AMD TAF AMD CYYJ 260515Z 2605/2624 29015G25KT P6SM FEW080 BKN160 BECMG 2606/2608 26008KT FM261200 14007KT P6SM SCT030 BKN050 TEMPO 2612/2615 6SM -RA BR OVC030 FM261500 14012KT P6SM -RA SCT015 OVC030 TEMPO 2615/2624 5SM -RA BR FEW008 BKN015 OVC030 RMK NXT FCST BY 260600Z

NANAIMO (CYCD)
METAR:

CYCD 260400Z 01006KT 320V050 15SM OVC110 15/11 A2977 RMK AC8 LAST SFD OBS/NEXT 261300Z SLP082 DENSITY ALT 300FT

TAF:

TAF CYCD 251740Z 2518/2604 VRB03KT P6SM FEW180 BECMG 2518/2520 10007KT FM260000 16007KT P6SM FEW060 BKN150 RMK NXT FCST BY 260000Z

LONG BEACH (CYAZ)
METAR:

CYAZ 260100Z 13006KT 5SM BR SCT003 BKN011 OVC031 13/12 A2984 RMK SF4SC3SC1 LAST STFD OBS/NXT 261300UTC SLP108

TAF:

TAF AMD TAF AMD CYAZ 260032Z 2600/2601 VRB02KT 1SM BR BKN004 TEMPO 2600/2601 5SM -RA BR SCT004 BKN020 RMK NXT FCST WILL BE ISSUED AT 261445Z

For more in-depth weather information, please, check Collaborative Flight Planning Service

For all Runway conditions in CYYJ, please check

IIDS Web View

Windy’s Forecast & Observations